Regional Weather Roundup
Issued by NWS Upton, NY

Current Version | Previous Version | Text Only | Print | Product List | Glossary Off
Versions: 1 2 3 4 5 6 7 8 9 10 11 12 13 14 15 16 17 18 19 20 21 22 23 24 25 26 27 28 29 30 31 32 33 34 35 36 37 38 39 40 41 42 43 44 45 46 47 48 49 50
000 ASUS41 KOKX 260905 RWROKX REGIONAL WEATHER ROUNDUP NATIONAL WEATHER SERVICE NEW YORK NY 400 AM EST WED NOV 26 2014 NOTE: "FAIR" INDICATES FEW OR NO CLOUDS BELOW 12,000 FEET WITH NO SIGNIFICANT WEATHER AND/OR OBSTRUCTIONS TO VISIBILITY. NYZ071-072-176-178-NJZ106-104-261000- NEW YORK CITY METRO AREA CITY SKY/WX TMP DP RH WIND PRES REMARKS CENTRAL PARK CLOUDY 50 27 40 VRB5 30.19F LAGUARDIA APRT CLOUDY 49 30 48 N9 30.16F KENNEDY INTL CLOUDY 50 27 40 N17 30.15F NEWARK/LIBERTY CLOUDY 47 32 56 N8 30.17F BRNX BOT. GARD N/A N/A N/A N/A CALM 30.16F TETERBORO CLOUDY 48 28 46 CALM 30.17F $$ NYZ177-179-078>081-261000- LONG ISLAND NEW YORK CITY SKY/WX TMP DP RH WIND PRES REMARKS FARMINGDALE NOT AVBL ISLIP CLOUDY 49 31 49 N10 30.13F SHIRLEY CLOUDY 48 34 58 CALM 30.18S WESTHAMPTON CLOUDY 45 37 73 CALM 30.19S MONTAUK POINT N/A 51 33 50 NW10 30.20R $$ NYZ052-065-067-261000- HUDSON VALLEY CITY SKY/WX TMP DP RH WIND PRES REMARKS WHITE PLAINS CLOUDY 45 30 55 CALM 30.16F NEWBURGH NOT AVBL MONTGOMERY CLOUDY 39 30 70 CALM 30.18S POUGHKEEPSIE CLOUDY 42 29 59 CALM 30.21S ALBANY CLOUDY 38 26 62 W6 30.20F WCI 33 $$ NJZ001-105-106-008-010-013-015-019>022-104-261000- NEW JERSEY CITY SKY/WX TMP DP RH WIND PRES REMARKS NEWARK/LIBERTY CLOUDY 47 32 56 N8 30.17F TETERBORO CLOUDY 48 28 46 CALM 30.17F CALDWELL CLOUDY 43 32 65 CALM 30.18F MORRISTOWN N/A 43 36 75 CALM 30.17F SOMERVILLE CLOUDY 40 33 76 CALM 30.15F SUSSEX CLOUDY 35 32 88 CALM 30.16F ANDOVER N/A 39 34 82 CALM 30.15F TRENTON CLOUDY 44 32 62 N8 30.11F MILLVILLE LGT RAIN 45 40 82 E7 30.07F ATLANTIC CITY LGT RAIN 44 39 82 NE7 30.09F WRIGHTSTOWN CLOUDY 46 33 60 NE8 30.08F TOMS RIVER CLOUDY 43 39 87 CALM 30.11F BELMAR CLOUDY 48 28 46 N7 30.11F $$ PAZ047>061-062-071-261000- EASTERN PENNSYLVANIA CITY SKY/WX TMP DP RH WIND PRES REMARKS PHILADELPHIA CLOUDY 50 31 48 N16 30.09F ALLENTOWN CLOUDY 38 32 79 NW3 30.18F SCRANTON CLOUDY 39 28 64 N5 30.18R $$ CTZ002-004>006-009-010-012-RIZ004-006-007-MAZ004-011-015-261000- SOUTHERN NEW ENGLAND IN CT CITY SKY/WX TMP DP RH WIND PRES REMARKS BRADLEY INTL CLOUDY 43 28 55 NW7 30.21R HARTFORD CLOUDY 43 28 55 VRB6 30.22R DANBURY CLOUDY 43 26 51 N3 30.20F WTRBRY/OXFORD CLOUDY 41 27 56 N10 30.20F BRIDGEPORT CLOUDY 47 32 56 N7 30.20S MERIDEN CLOUDY 44 28 53 N5 30.21R NEW HAVEN CLOUDY 48 30 49 N8 30.19S CHESTER FAIR 45 30 57 N10 30.19R GROTON CLOUDY 47 31 53 N9 30.17S WILLIMANTIC CLOUDY 40 35 83 N5 30.20R IN RI CITY SKY/WX TMP DP RH WIND PRES REMARKS PROVIDENCE CLOUDY 48 28 46 NW8 30.19R BLOCK ISLAND CLOUDY 50 30 46 N7 30.18R WESTERLY CLOUDY 46 33 60 N5 30.19R IN MA CITY SKY/WX TMP DP RH WIND PRES REMARKS BOSTON CLOUDY 47 29 49 W9 30.21R WORCESTER CLOUDY 39 27 62 SW3 30.18R WESTFIELD CLOUDY 41 29 62 NW6 30.20R PROVINCETOWN CLOUDY 48 37 66 W7 30.18S NANTUCKET CLOUDY 50 38 63 N5 30.17R $$ ANZ330-335-338-340-345-350-353-355-261000- COASTAL MARINE OBSERVATIONS STATION/POSITION TIME SKY/WX TEMP WIND PRES VSBY WAVE AIR SEA DIR/SP/G HT/PER (UTC) (F) (DEG/KT/KT) (MB) (MI) (FT/S) NY HARB ENTRANCE 0900 52 53 340/ 14/ 17 1021.0 3/ 9 4S FIRE IS 0900 52 N/A 4/ 8 20S FIRE ISLAND 0900 52 54 350/ 19/ 21 1020.6 4/ 9 23SW MTP 0900 N/A 4/ 9 HUDSON CANYON 0900 54 59 360/ 16/ 17 1020.1 5/ 9 EXECUTION ROCKS 0900 49 48 260/ 6/ 10 N/A WESTERN LI SOUND 0900 50 270/ 8/ 8 N/A 0 CENTRAL LI SOUND 0800 49 50 300/ 12/ 14 N/A 1/ 3 EASTERN LI SOUND 0800 50 53 320/ 10/ 14 N/A ROBBINS REEF 0900 49 350/ 12/ 13 1020.2 $$ >>>>>>>>>>>>>>>>>>>>>>>>>>>> KEY <<<<<<<<<<<<<<<<<<<<<<<<<<< > < > SKY/WX - SKY CONDITION/PRESENT WEATHER < > TMP - TEMPERATURE IN FAHRENHEIT < > DP - DEWPOINT IN FAHRENHEIT < > RH - RELATIVE HUMIDITY IN PERCENT < > WIND - DIRECTION AND SPEED IN MPH < > PRES - MEAN SEA LEVEL PRESSURE IN INCHES OF HG < > WCI - WIND CHILL INDEX < > VSB - VISIBILITY IN MILES < > HX - HEAT INDEX < > TC - TEMPERATURE IN CELSIUS < > VRB - VARIABLE WIND DIRECTION < > < >>>>>>>>>>>>>>>>>>>>>>>>>>>> KEY <<<<<<<<<<<<<<<<<<<<<<<<<<<

USA.gov is the U.S. government's official web portal to all federal, state and local government web resources and services.